This demonstration page uses our WeatherBlox Daily Observations layout. Learn more.

Left ArrowRight Arrow

38.20091, -84.87328

Hourly Observations for April 15, 2016

Temp ( °F °C ) Dew Point ( °F °C ) Humidity (%) Winds ( mph kmh ) Pressure ( in mb ) Visibility ( mi km ) Precip ( " mm )
12:53 am 00:53 Clear 51 10.6 31 -0.6 46 46 Calm 30.12 1020 10 16 0.00 0.00
1:53 am 01:53 Clear 49 9.4 31 -0.6 50 50 Calm 30.11 1020 10 16 0.00 0.00
2:53 am 02:53 Mostly Clear 52 11.1 31 -0.6 45 45 ENE 3 6 30.10 1019 10 16 0.00 0.00
3:53 am 03:53 Partly Cloudy 49 9.4 34 1.1 56 56 Calm 30.10 1019 10 16 0.00 0.00
4:53 am 04:53 Mostly Clear 48 8.9 32 0 54 54 Calm 30.10 1019 10 16 0.00 0.00
5:53 am 05:53 Clear 46 7.8 34 1.1 63 63 Calm 30.11 1020 10 16 0.00 0.00
6:53 am 06:53 Mostly Cloudy 46 7.8 34 1.1 63 63 Calm 30.14 1021 10 16 0.00 0.00
7:53 am 07:53 Cloudy 50 10 35 1.7 57 57 Calm 30.16 1021 10 16 0.00 0.00
8:53 am 08:53 Sunny 55 12.8 35 1.7 47 47 NE 5 7 30.16 1022 10 16 0.00 0.00
9:53 am 09:53 Sunny 60 15.6 38 3.3 44 44 VRB 3 6 30.16 1021 10 16 0.00 0.00
10:53 am 10:53 Sunny 66 18.9 41 5 40 40 VRB 3 6 30.17 1022 10 16 0.00 0.00
11:53 am 11:53 Sunny 69 20.6 41 5 36 36 SW 7 11 30.18 1022 10 16 0.00 0.00
12:53 pm 12:53 Sunny 71 21.7 42 5.6 35 35 VRB 3 6 30.17 1022 10 16 0.00 0.00
1:53 pm 13:53 Sunny 75 23.9 41 5 29 29 E 7 11 30.16 1021 10 16 0.00 0.00
2:53 pm 14:53 Sunny 76 24.4 46 7.8 35 35 VRB 7 11 30.15 1021 10 16 0.00 0.00
3:53 pm 15:53 Mostly Sunny 76 24.4 47 8.3 36 36 VRB 6 9 30.14 1021 10 16 0.00 0.00
4:53 pm 16:53 Sunny 76 24.4 48 8.9 37 37 VRB 3 6 30.13 1020 10 16 0.00 0.00
5:53 pm 17:53 Sunny 76 24.4 47 8.3 36 36 undefined N/A 30.13 1020 10 16 0.00 0.00
6:53 pm 18:53 Sunny 75 23.9 46 7.8 36 36 ENE 7 11 30.13 1020 10 16 0.00 0.00
7:53 pm 19:53 Partly Cloudy 72 22.2 46 7.8 40 40 ENE 6 9 30.14 1021 10 16 0.00 0.00
8:53 pm 20:53 Cloudy 68 20 47 8.3 47 47 Calm 30.14 1021 10 16 0.00 0.00
9:53 pm 21:53 Cloudy 63 17.2 49 9.4 60 60 Calm 30.16 1021 10 16 0.00 0.00
10:53 pm 22:53 Partly Cloudy 60 15.6 49 9.4 67 67 Calm 30.16 1021 10 16 0.00 0.00
11:53 pm 23:53 Clear 61 16.1 45 7.2 56 56 ENE 6 9 30.16 1022 10 16 0.00 0.00

Powered by AerisWeather